DW0275 Weather Reports


Display with metric or nautical units.
time (UTC)temp
F
wind
direction
speed
MPH
gust
MPH
rain 1hr
in
rain 24hr
in
rain mn
in
humidity
%
barometer
mb
20260831193833 88 14 5.0 9.0 0.00 0.08 0.00 81 1016.0
20260831193329 88 330 5.0 9.0 0.00 0.08 0.00 81 1016.2
20260831193017 87 8 4.0 9.0 0.00 0.08 0.00 80 1016.1
20260831192826 88 333 4.0 9.0 0.00 0.08 0.00 80 1016.4
20260831192321 88 331 4.0 9.0 0.00 0.08 0.00 80 1016.7
20260831191837 88 6 4.0 9.0 0.00 0.08 0.00 81 1016.6
20260831191538 88 342 4.0 8.0 0.00 0.08 0.00 81 1016.5
20260831191314 88 339 4.0 8.0 0.00 0.08 0.00 81 1016.5
20260831190830 88 351 4.0 10.0 0.00 0.08 0.00 81 1016.4
20260831190327 88 339 6.0 10.0 0.00 0.08 0.00 81 1016.3
20260831190112 87 4 5.0 10.0 0.00 0.08 0.00 81 1016.2
20260831185822 88 23 4.0 7.0 0.00 0.08 0.00 81 1016.4
20260831185338 87 37 3.0 9.0 0.00 0.08 0.00 81 1016.6
20260831184833 87 345 5.0 9.0 0.00 0.08 0.00 81 1016.6
20260831184515 86 357 4.0 7.0 0.00 0.08 0.00 82 1016.5
20260831184329 86 36 4.0 6.0 0.00 0.08 0.00 82 1016.7
20260831183826 86 1 3.0 8.0 0.00 0.08 0.00 82 1016.9
20260831183322 86 346 3.0 8.0 0.00 0.08 0.00 82 1016.8
20260831183003 86 343 4.0 8.0 0.00 0.08 0.00 81 1016.8
20260831182817 86 346 4.0 9.0 0.00 0.08 0.00 81 1016.9
20260831182333 87 5 5.0 12.0 0.00 0.08 0.00 80 1017.1
20260831181830 88 45 6.0 11.0 0.00 0.08 0.00 80 1017.0
20260831181547 87 23 5.0 9.0 0.00 0.08 0.00 80 1017.0
20260831181347 88 35 4.0 9.0 0.00 0.08 0.00 80 1017.2
20260831180821 87 32 6.0 8.0 0.00 0.08 0.00 80 1017.3
20260831180338 87 21 4.0 8.0 0.00 0.08 0.00 81 1017.3
20260831180009 86 23 3.0 8.0 0.00 0.08 0.00 81 1017.2
20260831175853 87 18 5.0 8.0 0.00 0.08 0.00 81 1017.4
20260831175325 87 345 4.0 10.0 0.00 0.08 0.00 82 1017.5
20260831174822 86 354 2.0 11.0 0.00 0.08 0.00 82 1017.5
20260831174530 86 4 7.0 11.0 0.00 0.08 0.00 81 1017.4
20260831174335 87 7 7.0 10.0 0.00 0.08 0.00 81 1017.3
20260831173831 88 354 5.0 8.0 0.00 0.08 0.00 80 1017.5
20260831173328 89 344 5.0 8.0 0.00 0.08 0.00 80 1017.5
20260831173058 89 20 1.0 7.0 0.00 0.08 0.00 80 1017.3
20260831172843 89 39 2.0 7.0 0.00 0.08 0.00 80 1017.4
20260831172319 89 98 3.0 7.0 0.00 0.08 0.00 79 1017.4
20260831171816 90 137 3.0 5.0 0.00 0.08 0.00 79 1017.4
20260831171514 90 111 2.0 5.0 0.00 0.08 0.00 79 1017.3
20260831171334 90 145 3.0 5.0 0.00 0.08 0.00 79 1017.4
20260831170852 89 135 0.0 6.0 0.00 0.08 0.00 81 1017.3
20260831170326 89 125 2.0 8.0 0.00 0.08 0.00 80 1017.4
20260831170040 89 129 3.0 8.0 0.00 0.08 0.00 80 1017.3
20260831165822 89 105 3.0 8.0 0.00 0.08 0.00 80 1017.4
20260831165319 89 101 3.0 7.0 0.00 0.08 0.00 80 1017.4
20260831164815 89 124 2.0 6.0 0.00 0.08 0.00 81 1017.5
20260831164519 88 148 1.0 7.0 0.00 0.08 0.00 82 1017.4
20260831164330 88 129 2.0 9.0 0.00 0.08 0.00 81 1017.6
20260831163827 89 127 2.0 9.0 0.00 0.08 0.00 81 1017.6
20260831163324 89 126 2.0 7.0 0.00 0.08 0.00 81 1017.6
20260831163010 88 106 1.0 7.0 0.00 0.08 0.00 81 1017.5
20260831162819 88 125 3.0 7.0 0.00 0.08 0.00 81 1017.6
20260831162315 89 153 3.0 8.0 0.00 0.08 0.00 81 1017.6
20260831161832 89 102 2.0 8.0 0.00 0.08 0.00 81 1017.7
20260831161601 89 115 1.0 4.0 0.00 0.08 0.00 80 1017.6
20260831161501 89 146 1.0 4.0 0.00 0.08 0.00 80 1017.6
20260831161329 89 149 2.0 4.0 0.00 0.08 0.00 81 1017.8
20260831160847 89 125 2.0 4.0 0.00 0.08 0.00 81 1017.9
20260831160343 89 136 1.0 6.0 0.00 0.08 0.00 81 1018.0
20260831160104 88 140 2.0 6.0 0.00 0.08 0.00 81 1017.9
20260831155818 89 115 2.0 6.0 0.00 0.09 0.00 81 1018.0
20260831155334 89 219 1.0 5.0 0.00 0.09 0.00 82 1018.1
20260831154831 90 151 3.0 5.0 0.00 0.09 0.00 81 1018.1
20260831154536 89 188 1.0 5.0 0.00 0.09 0.00 81 1017.9
20260831154327 89 153 2.0 5.0 0.00 0.09 0.00 82 1018.1
20260831153844 89 131 1.0 6.0 0.00 0.09 0.00 82 1018.2
20260831153319 89 146 2.0 7.0 0.00 0.09 0.00 82 1018.2
20260831153101 88 161 3.0 7.0 0.00 0.09 0.00 82 1018.1
20260831153001 88 139 4.0 7.0 0.00 0.09 0.00 82 1018.1
20260831152817 88 127 3.0 6.0 0.00 0.09 0.00 82 1018.2
20260831152335 88 133 2.0 6.0 0.00 0.09 0.00 82 1018.3
20260831151852 88 135 1.0 6.0 0.00 0.09 0.00 82 1018.2
20260831151523 87 141 2.0 6.0 0.00 0.09 0.00 82 1018.2
20260831151328 87 131 2.0 6.0 0.00 0.09 0.00 82 1018.2
20260831150825 88 113 2.0 4.0 0.00 0.09 0.00 82 1018.1
20260831150323 88 103 1.0 3.0 0.00 0.09 0.00 82 1018.1
20260831150012 87 127 0.0 3.0 0.00 0.09 0.00 82 1017.9
20260831145834 87 127 0.0 3.0 0.00 0.09 0.00 82 1018.0
20260831145350 87 122 2.0 3.0 0.00 0.09 0.00 82 1018.0
20260831144826 87 124 1.0 4.0 0.00 0.09 0.00 82 1018.0
20260831144534 87 71 1.0 4.0 0.00 0.09 0.00 82 1017.9
20260831144316 87 65 1.0 4.0 0.00 0.09 0.00 82 1018.0
20260831143815 87 86 2.0 6.0 0.00 0.09 0.00 82 1018.1
20260831143331 87 84 2.0 6.0 0.00 0.09 0.00 82 1018.0
20260831143019 87 134 2.0 6.0 0.00 0.09 0.00 82 1017.9
20260831142828 88 134 2.0 5.0 0.00 0.09 0.00 82 1018.0
20260831142325 88 51 1.0 4.0 0.00 0.09 0.00 82 1017.9
20260831141822 88 229 1.0 5.0 0.00 0.09 0.00 82 1017.9
20260831141614 88 129 2.0 5.0 0.00 0.09 0.00 82 1017.7
20260831141319 88 129 1.0 5.0 0.00 0.09 0.00 82 1018.0
20260831140817 89 129 1.0 4.0 0.00 0.09 0.00 82 1018.1
20260831140333 89 81 0.0 3.0 0.00 0.09 0.00 82 1017.9
20260831140046 89 122 0.0 3.0 0.00 0.09 0.00 82 1017.7
20260831135829 89 122 1.0 3.0 0.00 0.09 0.00 82 1017.8
20260831135324 89 119 0.0 2.0 0.00 0.09 0.00 82 1017.8
20260831134820 90 135 0.0 1.0 0.00 0.09 0.00 82 1017.8
20260831134541 89 70 0.0 0.0 0.00 0.09 0.00 84 1017.7
20260831134316 88 70 0.0 0.0 0.00 0.09 0.00 84 1017.7
20260831133900 87 70 0.0 0.0 0.00 0.09 0.00 84 1017.7
20260831133355 86 72 0.0 1.0 0.00 0.09 0.00 84 1017.9
20260831133037 86 72 0.0 1.0 0.00 0.09 0.00 86 1017.7
20260831132831 86 72 0.0 1.0 0.00 0.09 0.00 85 1017.6
20260831132327 86 134 0.0 1.0 0.00 0.09 0.00 88 1017.5
20260831131821 85 133 0.0 1.0 0.00 0.09 0.00 90 1017.5
20260831131524 84 134 0.0 0.0 0.00 0.09 0.00 91 1017.4
20260831131318 84 134 0.0 0.0 0.00 0.09 0.00 92 1017.5
20260831130834 83 134 0.0 0.0 0.00 0.09 0.00 93 1017.5
20260831130331 82 134 0.0 0.0 0.00 0.09 0.00 93 1017.4
20260831130009 81 134 0.0 1.0 0.00 0.09 0.00 94 1017.1
20260831125827 82 134 0.0 1.0 0.00 0.09 0.00 94 1017.3
20260831125323 81 134 0.0 2.0 0.00 0.09 0.00 94 1017.3
20260831124818 80 134 0.0 1.0 0.00 0.09 0.00 94 1017.2
20260831124608 80 358 0.0 2.0 0.00 0.09 0.00 94 1017.0
20260831124333 80 349 0.0 2.0 0.00 0.09 0.00 94 1017.0
20260831123827 79 328 0.0 1.0 0.00 0.09 0.00 94 1017.1
20260831123325 79 359 0.0 0.0 0.00 0.09 0.00 94 1017.1
20260831123044 78 359 0.0 0.0 0.00 0.09 0.00 94 1017.0
20260831122821 78 359 0.0 0.0 0.00 0.09 0.00 94 1017.1
20260831122319 78 1 0.0 1.0 0.00 0.09 0.00 94 1017.0
20260831121816 78 352 0.0 1.0 0.00 0.09 0.00 94 1017.0
20260831121531 78 352 0.0 1.0 0.00 0.09 0.00 94 1016.8
20260831121333 78 349 0.0 0.0 0.00 0.09 0.00 94 1016.9
20260831120831 78 349 0.0 0.0 0.00 0.09 0.00 94 1016.8
20260831120329 78 349 0.0 0.0 0.00 0.09 0.00 94 1016.7
20260831120023 77 349 0.0 0.0 0.00 0.09 0.00 94 1016.6
20260831115828 78 349 0.0 0.0 0.00 0.09 0.00 94 1016.7
20260831115326 78 349 0.0 0.0 0.00 0.09 0.00 94 1016.7
20260831114822 78 349 0.0 0.0 0.00 0.09 0.00 94 1016.7
20260831114559 77 349 0.0 0.0 0.00 0.09 0.00 94 1016.5
20260831114501 77 349 0.0 0.0 0.00 0.09 0.00 94 1016.5
20260831114319 78 349 0.0 0.0 0.00 0.09 0.00 94 1016.6
20260831113814 78 349 0.0 0.0 0.00 0.09 0.00 94 1016.6
20260831113330 77 349 0.0 0.0 0.00 0.09 0.00 94 1016.5
20260831113053 77 349 0.0 0.0 0.00 0.09 0.00 94 1016.4
20260831112827 77 349 0.0 0.0 0.00 0.09 0.00 94 1016.4
20260831112323 77 349 0.0 0.0 0.00 0.09 0.00 94 1016.4
20260831111550 77 347 0.0 0.0 0.00 0.09 0.00 94 1016.1
20260831111330 77 347 0.0 0.0 0.00 0.09 0.00 94 1016.2
20260831110827 77 347 0.0 0.0 0.00 0.09 0.00 94 1016.2
20260831110325 77 347 0.0 0.0 0.00 0.09 0.00 94 1016.2
20260831110039 77 347 0.0 0.0 0.00 0.09 0.00 94 1016.0
20260831105821 77 347 0.0 0.0 0.00 0.09 0.00 94 1016.0
20260831105318 77 347 0.0 0.0 0.00 0.09 0.00 94 1016.1
20260831104533 77 347 0.0 0.0 0.00 0.09 0.00 94 1015.9
20260831104330 77 347 0.0 0.0 0.00 0.09 0.00 94 1016.0
20260831103827 77 347 0.0 0.0 0.00 0.09 0.00 94 1016.0
20260831103324 77 347 0.0 0.0 0.00 0.09 0.00 94 1016.0
20260831103022 77 347 0.0 0.0 0.00 0.09 0.00 94 1015.9
20260831102821 77 347 0.0 0.0 0.00 0.09 0.00 94 1016.1
20260831102320 78 347 0.0 0.0 0.00 0.09 0.00 94 1016.0
20260831101837 78 347 0.0 0.0 0.00 0.09 0.00 94 1016.0
20260831101509 77 347 0.0 0.0 0.00 0.09 0.00 94 1015.9
20260831101353 78 347 0.0 0.0 0.00 0.09 0.00 94 1016.0
20260831100828 78 347 0.0 0.0 0.00 0.09 0.00 94 1016.1
20260831100327 78 347 0.0 0.0 0.00 0.09 0.00 94 1016.0
20260831100031 77 347 0.0 0.0 0.00 0.09 0.00 94 1015.8
20260831095822 78 347 0.0 0.0 0.00 0.09 0.00 94 1016.0
20260831095340 78 347 0.0 0.0 0.00 0.09 0.00 94 1015.9
20260831094850 78 347 0.0 0.0 0.00 0.09 0.00 94 1015.8
20260831094545 77 347 0.0 0.0 0.00 0.09 0.00 94 1015.7
20260831094326 78 347 0.0 0.0 0.00 0.09 0.00 94 1015.6
20260831093845 78 347 0.0 0.0 0.00 0.09 0.00 94 1015.5
20260831093320 78 347 0.0 0.0 0.00 0.09 0.00 94 1015.5
20260831093009 77 347 0.0 0.0 0.00 0.09 0.00 94 1015.4
20260831092819 78 347 0.0 0.0 0.00 0.09 0.00 94 1015.6
20260831092317 78 347 0.0 1.0 0.00 0.09 0.00 94 1015.6
20260831091834 78 347 0.0 2.0 0.00 0.09 0.00 94 1015.6
20260831091527 78 347 0.0 2.0 0.00 0.09 0.00 94 1015.5
20260831091331 78 347 1.0 2.0 0.00 0.09 0.00 94 1015.6
20260831090828 78 344 0.0 1.0 0.00 0.09 0.00 94 1015.7
20260831090323 78 342 0.0 1.0 0.00 0.09 0.00 94 1015.6
20260831090011 78 342 0.0 0.0 0.00 0.09 0.00 94 1015.7
20260831085838 78 342 0.0 0.0 0.00 0.09 0.00 94 1015.8
20260831085332 78 342 0.0 1.0 0.00 0.09 0.00 94 1015.9
20260831084828 78 342 0.0 1.0 0.00 0.09 0.00 94 1015.8
20260831084534 78 342 0.0 1.0 0.00 0.09 0.00 94 1015.7
20260831084326 78 342 0.0 1.0 0.00 0.09 0.00 94 1015.9
20260831083823 78 11 0.0 0.0 0.00 0.09 0.00 94 1015.8
20260831083320 78 11 0.0 0.0 0.00 0.09 0.00 94 1015.9
20260831083023 78 11 0.0 0.0 0.00 0.09 0.00 94 1015.8
20260831082816 78 11 0.0 0.0 0.00 0.09 0.00 94 1015.9
20260831082333 78 11 0.0 0.0 0.00 0.09 0.00 94 1016.0
20260831081830 78 11 0.0 0.0 0.00 0.09 0.00 94 1016.0
20260831081515 78 11 0.0 0.0 0.00 0.09 0.00 94 1015.9
20260831081326 78 11 0.0 0.0 0.00 0.09 0.00 94 1016.0
20260831080823 78 11 0.0 0.0 0.00 0.09 0.00 94 1016.1
20260831080321 78 11 0.0 0.0 0.00 0.09 0.00 94 1016.0
20260831080006 78 11 0.0 0.0 0.00 0.09 0.00 94 1016.0
20260831075839 78 11 0.0 0.0 0.00 0.09 0.00 94 1016.1
20260831075314 78 11 0.0 0.0 0.00 0.09 0.00 94 1016.0
20260831074830 78 11 0.0 0.0 0.00 0.09 0.00 94 1016.0
20260831074527 77 11 0.0 1.0 0.00 0.09 0.00 94 1015.9
20260831074327 78 11 0.0 1.0 0.00 0.09 0.00 94 1015.9
20260831073826 78 15 0.0 1.0 0.00 0.09 0.00 94 1016.0
20260831073322 78 29 0.0 0.0 0.00 0.09 0.00 94 1016.0
20260831073022 77 29 0.0 0.0 0.00 0.09 0.00 94 1015.9
20260831072818 78 29 0.0 0.0 0.00 0.09 0.00 94 1016.0
20260831072317 78 29 0.0 0.0 0.00 0.09 0.00 94 1016.1
20260831071836 78 29 0.0 0.0 0.00 0.09 0.00 94 1016.1
20260831071551 77 29 0.0 0.0 0.00 0.09 0.00 94 1016.0
20260831071352 78 29 0.0 0.0 0.00 0.09 0.00 94 1016.2
20260831070826 78 29 0.0 0.0 0.00 0.09 0.00 94 1016.2
20260831070324 78 29 0.0 0.0 0.00 0.09 0.00 94 1016.2
20260831070028 77 29 0.0 0.0 0.00 0.09 0.00 94 1016.1
20260831065821 78 29 0.0 0.0 0.00 0.09 0.00 94 1016.2
20260831065317 77 29 0.0 0.0 0.00 0.09 0.00 93 1016.3
20260831064815 78 29 0.0 0.0 0.00 0.09 0.00 93 1016.4
20260831064508 77 29 0.0 0.0 0.00 0.09 0.00 93 1016.3
20260831064331 78 29 0.0 0.0 0.00 0.09 0.00 93 1016.4
20260831063849 78 29 0.0 0.0 0.00 0.09 0.00 93 1016.5
20260831063324 78 29 0.0 0.0 0.00 0.09 0.00 93 1016.5
20260831063026 77 29 0.0 0.0 0.00 0.09 0.00 93 1016.4
20260831062821 78 29 0.0 0.0 0.00 0.09 0.00 93 1016.4
20260831062316 78 29 0.0 0.0 0.00 0.09 0.00 93 1016.3
20260831061833 78 29 0.0 0.0 0.00 0.09 0.00 93 1016.3
20260831061513 77 29 0.0 0.0 0.00 0.09 0.00 93 1016.3
20260831061328 78 29 0.0 0.0 0.00 0.09 0.00 93 1016.4
20260831060826 78 29 0.0 0.0 0.00 0.09 0.00 93 1016.4
20260831060323 78 29 0.0 0.0 0.00 0.09 0.00 93 1016.5
20260831060002 77 29 0.0 0.0 0.00 0.09 0.00 93 1016.5
20260831055840 78 29 0.0 0.0 0.00 0.09 0.00 93 1016.6
20260831055316 78 29 0.0 0.0 0.00 0.09 0.00 93 1016.7
20260831054832 78 29 0.0 0.0 0.00 0.09 0.00 93 1016.8
20260831054525 77 29 0.0 0.0 0.00 0.09 0.00 93 1016.8
20260831054329 78 29 0.0 0.0 0.00 0.09 0.00 93 1017.0
20260831053826 78 29 0.0 0.0 0.00 0.09 0.00 93 1016.9
20260831053324 78 29 0.0 0.0 0.00 0.09 0.00 93 1017.0
20260831053011 78 29 0.0 0.0 0.00 0.09 0.00 93 1017.0
20260831052821 78 29 0.0 0.0 0.00 0.09 0.00 93 1017.1
20260831052319 78 29 0.0 0.0 0.00 0.09 0.00 93 1017.2
20260831051816 78 29 0.0 0.0 0.00 0.09 0.00 93 1017.2
20260831051608 77 29 0.0 0.0 0.00 0.09 0.00 93 1017.3
20260831051332 78 29 0.0 0.0 0.00 0.09 0.00 93 1017.2
20260831050829 78 29 0.0 0.0 0.00 0.09 0.00 93 1017.3
20260831050326 78 29 0.0 0.0 0.00 0.09 0.00 93 1017.3
20260831050042 78 29 0.0 0.0 0.00 0.09 0.00 93 1017.2
20260831045823 78 29 0.0 0.0 0.00 0.09 0.00 93 1017.3
20260831045337 78 29 0.0 0.0 0.00 0.09 0.00 93 1017.3
20260831044832 78 29 0.0 0.0 0.00 0.09 0.00 93 1017.5
20260831044559 77 29 0.0 0.0 0.00 0.09 0.00 93 1017.4
20260831044500 77 29 0.0 0.0 0.00 0.09 0.00 93 1017.4
20260831044329 78 29 0.0 0.0 0.00 0.09 0.00 93 1017.5
20260831043848 78 29 0.0 0.0 0.00 0.09 0.00 93 1017.6
20260831043324 78 29 0.0 0.0 0.00 0.09 0.00 93 1017.6
20260831043021 77 29 0.0 0.0 0.00 0.09 0.00 93 1017.6
20260831042819 78 29 0.0 0.0 0.00 0.09 0.00 93 1017.6
20260831042337 78 29 0.0 0.0 0.00 0.09 0.00 93 1017.6
20260831041854 78 29 0.0 0.0 0.00 0.09 0.00 93 1017.6
20260831041540 77 29 0.0 0.0 0.00 0.09 0.00 93 1017.6
20260831041351 78 29 0.0 0.0 0.00 0.09 0.00 93 1017.6
20260831040848 78 29 0.0 0.0 0.00 0.09 0.00 93 1017.6
20260831040344 78 29 0.0 0.0 0.00 0.09 0.00 93 1017.6
20260831040028 77 29 0.0 0.0 0.00 0.09 0.00 93 1017.6
20260831035840 78 29 0.0 0.0 0.00 0.09 0.09 93 1017.7
20260831035355 78 29 0.0 0.0 0.00 0.09 0.09 93 1017.7
20260831034830 78 34 0.0 0.0 0.00 0.09 0.09 93 1017.8
20260831034546 77 49 0.0 0.0 0.00 0.09 0.09 93 1017.7
20260831034327 78 49 0.0 0.0 0.00 0.09 0.09 93 1017.8
20260831033822 78 50 0.0 0.0 0.00 0.09 0.09 93 1017.9
20260831033319 78 50 0.0 0.0 0.00 0.09 0.09 93 1017.9
20260831033033 77 50 0.0 0.0 0.00 0.09 0.09 93 1017.7
20260831032836 78 50 0.0 0.0 0.00 0.09 0.09 93 1017.8
20260831032353 78 50 0.0 0.0 0.00 0.09 0.09 93 1017.8
20260831031830 78 50 0.0 0.0 0.00 0.09 0.09 93 1017.8
20260831031553 77 50 0.0 0.0 0.00 0.09 0.09 93 1017.7
20260831031328 78 50 0.0 0.0 0.00 0.09 0.09 93 1017.8
20260831030824 78 50 0.0 0.0 0.00 0.09 0.09 93 1017.8
20260831030320 78 351 0.0 0.0 0.00 0.09 0.09 93 1017.8
20260831030035 77 350 0.0 0.0 0.00 0.09 0.09 93 1017.7
20260831025837 78 351 0.0 0.0 0.00 0.09 0.09 93 1017.9
20260831025329 78 350 0.0 0.0 0.00 0.09 0.09 93 1018.0
20260831024846 78 2 0.0 0.0 0.00 0.09 0.09 93 1017.8
20260831024600 77 2 0.0 0.0 0.00 0.09 0.09 93 1017.7
20260831024322 78 2 0.0 0.0 0.00 0.09 0.09 93 1017.8
20260831023839 78 2 0.0 0.0 0.00 0.09 0.09 93 1017.7
20260831023356 78 2 0.0 0.0 0.00 0.09 0.09 93 1017.6
20260831023053 77 2 0.0 0.0 0.00 0.09 0.09 93 1017.5
20260831022831 78 2 0.0 0.0 0.00 0.09 0.09 93 1017.7
20260831022326 78 2 0.0 0.0 0.00 0.09 0.09 93 1017.5
20260831021845 78 2 0.0 0.0 0.00 0.09 0.09 93 1017.5
20260831021545 77 2 0.0 0.0 0.00 0.09 0.09 93 1017.4
20260831021341 78 2 0.0 0.0 0.00 0.09 0.09 93 1017.6
20260831020817 77 2 0.0 0.0 0.00 0.09 0.09 92 1017.6
20260831020334 77 2 0.0 0.0 0.00 0.09 0.09 92 1017.7
20260831020009 77 2 0.0 1.0 0.00 0.09 0.09 92 1017.6
20260831015851 77 2 0.0 1.0 0.00 0.09 0.09 92 1017.7
20260831015328 77 41 0.0 0.0 0.00 0.09 0.09 92 1017.8
20260831014822 77 41 0.0 0.0 0.00 0.09 0.09 92 1017.8
20260831014518 77 41 0.0 0.0 0.00 0.09 0.09 92 1017.8
20260831014339 77 41 0.0 0.0 0.00 0.09 0.09 92 1017.9
20260831013855 77 41 0.0 0.0 0.00 0.09 0.09 92 1017.9
20260831013351 77 41 0.0 0.0 0.00 0.09 0.09 92 1017.9
20260831013007 77 41 0.0 0.0 0.00 0.09 0.09 92 1017.7
20260831012827 77 41 0.0 0.0 0.00 0.09 0.09 92 1017.8
20260831012324 77 41 0.0 1.0 0.01 0.09 0.09 92 1017.7
20260831011838 77 41 0.0 1.0 0.01 0.09 0.09 92 1017.8
20260831011530 77 41 0.0 1.0 0.02 0.09 0.09 92 1017.7
20260831011332 77 46 0.0 0.0 0.02 0.09 0.09 92 1017.7
20260831010830 77 57 0.0 0.0 0.02 0.09 0.09 92 1017.7
20260831010327 77 57 0.0 0.0 0.03 0.09 0.09 91 1017.8
20260831010020 77 56 0.0 1.0 0.03 0.09 0.09 91 1017.6
20260831005823 77 56 0.0 1.0 0.04 0.09 0.09 91 1017.7
20260831005318 77 56 0.0 1.0 0.05 0.09 0.09 91 1017.6
20260831004836 77 57 0.0 0.0 0.05 0.09 0.09 91 1017.6
20260831004559 76 57 0.0 0.0 0.05 0.09 0.09 91 1017.5
20260831004505 76 57 0.0 0.0 0.05 0.09 0.09 91 1017.5
20260831004353 77 57 0.0 0.0 0.05 0.09 0.09 91 1017.6
20260831003829 77 56 0.0 3.0 0.06 0.09 0.09 91 1017.6
20260831003327 77 111 0.0 3.0 0.07 0.09 0.09 91 1017.6
20260831003024 77 136 0.0 3.0 0.07 0.09 0.09 91 1017.6
20260831002824 77 152 0.0 3.0 0.08 0.09 0.09 91 1017.7
20260831002321 77 56 0.0 3.0 0.07 0.08 0.08 91 1017.7
20260831001838 77 68 1.0 5.0 0.07 0.08 0.08 91 1017.7
20260831001544 77 136 2.0 5.0 0.06 0.07 0.07 91 1017.6
20260831001315 78 58 1.0 3.0 0.06 0.07 0.07 91 1017.6
20260831000832 78 143 0.0 3.0 0.06 0.07 0.07 91 1017.6
20260831000332 78 135 1.0 5.0 0.05 0.06 0.06 91 1017.4
20260831000027 77 79 1.0 5.0 0.05 0.06 0.06 91 1017.2
20260830235826 77 53 1.0 5.0 0.04 0.05 0.05 91 1017.3
20260830235323 77 57 2.0 7.0 0.03 0.04 0.04 91 1017.3
20260830234820 78 117 3.0 9.0 0.03 0.04 0.04 91 1017.3
20260830234514 78 134 1.0 9.0 0.03 0.04 0.04 91 1017.1
20260830234318 78 43 2.0 9.0 0.03 0.04 0.04 91 1017.2
20260830233816 78 49 2.0 7.0 0.02 0.03 0.03 90 1017.2
20260830233333 78 65 2.0 7.0 0.01 0.02 0.02 90 1017.3
20260830233057 78 126 3.0 7.0 0.01 0.02 0.02 90 1017.4
20260830232832 79 102 2.0 7.0 0.00 0.01 0.01 90 1017.5
20260830232329 79 53 2.0 3.0 0.00 0.01 0.01 90 1017.4
20260830231828 79 129 0.0 5.0 0.00 0.01 0.01 89 1017.3
20260830231547 78 143 1.0 7.0 0.00 0.01 0.01 88 1017.1
20260830230827 79 117 4.0 6.0 0.00 0.01 0.01 87 1017.5
20260830230324 80 155 3.0 6.0 0.00 0.01 0.01 86 1017.5
20260830230036 80 147 1.0 8.0 0.00 0.01 0.01 86 1017.3
20260830225823 81 168 2.0 8.0 0.00 0.01 0.01 86 1017.3
20260830225322 82 152 3.0 8.0 0.00 0.01 0.01 86 1017.4
20260830224820 81 356 0.0 0.0 0.00 0.01 0.01 85 1017.1
20260830224518 81 356 0.0 0.0 0.00 0.01 0.01 85 1017.0
20260830224318 81 356 0.0 0.0 0.00 0.01 0.01 85 1017.1
20260830223836 81 45 0.0 0.0 0.00 0.01 0.01 85 1017.3
20260830223333 82 45 0.0 0.0 0.00 0.01 0.01 85 1017.4
20260830223047 81 45 0.0 1.0 0.00 0.01 0.01 85 1017.3
20260830222829 82 45 0.0 2.0 0.00 0.01 0.01 85 1017.2
20260830222328 82 285 0.0 4.0 0.00 0.01 0.01 84 1017.0
20260830221826 82 37 1.0 4.0 0.00 0.01 0.01 84 1017.2
20260830221545 82 30 0.0 0.0 0.00 0.01 0.01 84 1017.0
20260830221324 82 329 0.0 0.0 0.00 0.01 0.01 84 1017.0
20260830220821 82 31 0.0 1.0 0.00 0.01 0.01 84 1016.8
20260830220340 82 31 0.0 1.0 0.00 0.01 0.01 84 1016.8
20260830220004 81 31 0.0 3.0 0.00 0.01 0.01 84 1016.8
20260830215815 82 314 0.0 3.0 0.00 0.01 0.01 84 1016.9
20260830215332 82 44 1.0 3.0 0.00 0.01 0.01 84 1017.0
20260830214829 82 263 0.0 2.0 0.00 0.01 0.01 84 1017.0
20260830214550 81 262 0.0 3.0 0.00 0.01 0.01 84 1016.9
20260830214327 82 288 0.0 3.0 0.00 0.01 0.01 84 1017.1
20260830213845 82 23 0.0 6.0 0.00 0.01 0.01 83 1017.0
20260830213320 82 286 0.0 6.0 0.00 0.01 0.01 83 1017.0
20260830213017 82 335 1.0 4.0 0.00 0.01 0.01 83 1016.9
20260830212817 83 318 0.0 5.0 0.00 0.01 0.01 83 1017.1
20260830212334 83 316 0.0 5.0 0.00 0.01 0.01 82 1017.1
20260830211832 84 82 1.0 3.0 0.00 0.01 0.01 82 1017.1
20260830211558 84 144 0.0 4.0 0.00 0.01 0.01 82 1017.1
20260830211328 85 295 0.0 4.0 0.00 0.01 0.01 81 1017.1
20260830210825 86 345 0.0 4.0 0.00 0.01 0.01 81 1017.0
20260830210322 87 139 1.0 5.0 0.00 0.01 0.01 81 1016.7
20260830210043 86 38 0.0 6.0 0.00 0.01 0.01 80 1016.6
20260830205837 87 135 2.0 6.0 0.00 0.01 0.01 81 1016.7
20260830205353 87 113 3.0 6.0 0.00 0.01 0.01 80 1016.7
20260830204830 87 63 2.0 6.0 0.00 0.01 0.01 80 1016.8
20260830204509 87 149 1.0 8.0 0.00 0.01 0.01 79 1016.6
20260830204328 87 134 1.0 10.0 0.00 0.01 0.01 79 1016.6
20260830203823 88 134 4.0 10.0 0.00 0.01 0.01 78 1016.6
20260830203320 88 124 5.0 9.0 0.00 0.01 0.01 78 1016.5
20260830203116 87 134 4.0 7.0 0.00 0.01 0.01 78 1016.5
20260830202819 88 107 3.0 6.0 0.00 0.01 0.01 78 1016.6
20260830202316 88 147 3.0 6.0 0.00 0.01 0.01 78 1016.6
20260830201834 88 130 3.0 8.0 0.00 0.01 0.01 78 1016.4
20260830201546 88 143 3.0 11.0 0.00 0.01 0.01 77 1016.2
20260830201331 89 120 5.0 11.0 0.00 0.01 0.01 77 1016.3
20260830200828 89 121 6.0 10.0 0.00 0.01 0.01 77 1016.2
20260830200325 89 111 4.0 8.0 0.00 0.01 0.01 78 1016.4
20260830200026 89 139 3.0 8.0 0.00 0.03 0.01 78 1016.4
20260830195822 89 97 4.0 8.0 0.00 0.03 0.01 79 1016.5
20260830195319 89 268 4.0 8.0 0.00 0.03 0.01 79 1016.7
20260830194814 89 139 5.0 8.0 0.00 0.03 0.01 79 1016.7
20260830194508 89 105 3.0 7.0 0.00 0.03 0.01 79 1016.7
20260830194332 89 131 3.0 7.0 0.00 0.03 0.01 79 1016.8